Location: Baumgartsau
(48.4586°N, 14.0864°E)
Time: 15:08:51
(UTC+00:00)

BREEZE M DEB (TANK) - Pass Details

Date: 15 May 2021
Orbit: 296 x 11842 km, 49.5° (Epoch: 19 June)

Event Time Altitude Azimuth Distance (km) Brightness Sun altitude
Rises 22:27:39 0° 300° (WNW) 6,830 8.4 -22.1°
Reaches altitude 10° 22:31:20 10° 293° (WNW) 6,664 8.1 -22.1°
Maximum altitude 22:55:36 39° 237° (WSW) 8,968 8.1 -22.4°
Enters shadow 23:38:02 22° 199° (SSW) 14,291 8.8 -21.9°
